Погода в Усть-Ницинском

Россия / Свердловская область     57°28′30″N   64°31′29″E
темп.,
°C
ветер,
м/с
пор.,
м/с
влажн.,
%
обл.,
%
осадки,
мм/ч
давл.,
гПа
погр.,
м
19 апреля, пн
пн1923:00−3ссв48450 0.0 10321163
02:00−5ссв25510 0.0 1033479
05:00−5ссз25550 0.0 1035357
08:00−4с47394 0.0 10351182
11:00−1с4734100 0.0 10352040
14:00+2с4728100 0.0 10342418
17:00+2с562650 0.0 10332240
20:00−2св22410 0.0 103431
20 апреля, вт
вт2023:00−3всв11473 0.0 103413
02:00−4ююз11475 0.0 103412
05:00−4зюз24475 0.0 103471
08:00+1з4736100 0.0 1032415
11:00+5з583258 0.0 10301339
14:00+8зсз68305 0.0 10281599
17:00+9сз68355 0.0 10271747
20:00+5зсз38515 0.0 1026166
21 апреля, ср
ср2123:00+3зсз310645 0.0 1027192
02:00+1сз39745 0.0 1027189
05:000сз25865 0.0 102988
08:00+4ссз34735 0.0 1031323
11:00+8с345745 0.0 10311265
14:00+10с3446100 0.0 10311713
17:00+10ссв3346100 0.0 10321554
20:00+8всв225477 0.0 103423
22 апреля, чт
чт2223:00+5вюв22645 0.0 103517
02:00+3ююв22735 0.0 103527
05:00+2ююв22775 0.0 103621
08:00+7ююв34585 0.0 1037260
11:00+12ююв444521 0.0 10371210
14:00+14ю453812 0.0 10361881
17:00+15ю453612 0.0 10351930
20:00+11ююв36535 0.0 1035103
23 апреля, пт
пт2323:00+8ююв411613 0.0 1036293
02:00+7ююв412641 0.0 1036326
05:00+5ююв410670 0.0 1036254
08:00+8ююв47560 0.0 1036346
11:00+14ююв46400 0.0 1036950
14:00+16ю56335 0.0 10352193
17:00+17ююв453263 0.0 10342246
20:00+12юв5104621 0.0 1034339